WW5JC Weather Reports


time (UTC)temp
C
wind
direction
speed
KPH
gust
KPH
rain 1hr
cm
rain 24hr
cm
rain mn
cm
humidity
%
barometer
mb
20260509173729 25 35 0.0 1.6 0.00 0.00 0.00 83 1012.7
20260509173225 25 36 6.4 6.4 0.00 0.00 0.00 82 1013.0
20260509172721 25 358 6.4 6.4 0.00 0.00 0.00 82 1012.5
20260509172218 25 351 4.8 4.8 0.00 0.00 0.00 83 1012.8
20260509171713 25 7 1.6 4.8 0.00 0.00 0.00 84 1012.9
20260509171210 25 349 3.2 3.2 0.00 0.00 0.00 83 1012.9
20260509170707 25 22 4.8 4.8 0.00 0.00 0.00 83 1012.8
20260509170202 24 351 6.4 6.4 0.00 0.00 0.00 84 1012.9
20260509165701 25 23 1.6 1.6 0.00 0.00 0.00 83 1012.9
20260509165156 25 359 14.5 14.5 0.00 0.00 0.00 83 1012.9
20260509164653 25 0 9.7 11.3 0.00 0.00 0.00 83 1013.0
20260509164148 24 340 8.0 9.7 0.00 0.00 0.00 84 1012.9
20260509163646 24 358 4.8 6.4 0.00 0.00 0.00 85 1012.9
20260509163142 24 346 12.9 14.5 0.00 0.00 0.00 85 1012.9
20260509162640 23 344 6.4 6.4 0.00 0.00 0.00 87 1012.9
20260509162135 23 39 3.2 3.2 0.00 0.00 0.00 87 1012.8
20260509161631 23 20 1.6 3.2 0.00 0.00 0.00 88 1012.7
20260509161126 23 20 1.6 3.2 0.00 0.00 0.00 87 1012.8
20260509160623 23 346 6.4 6.4 0.00 0.00 0.00 87 1012.6
20260509160118 23 20 3.2 4.8 0.00 0.00 0.00 89 1012.7
20260509155615 23 38 4.8 6.4 0.00 0.00 0.00 87 1012.4
20260509155111 23 49 4.8 6.4 0.00 0.00 0.00 89 1012.5
20260509154607 23 49 3.2 3.2 0.00 0.00 0.00 90 1012.6
20260509154104 23 45 3.2 3.2 0.00 0.00 0.00 90 1012.6
20260509153601 22 46 4.8 4.8 0.00 0.00 0.00 90 1012.8
20260509153058 22 43 8.0 9.7 0.00 0.00 0.00 90 1012.5
20260509152554 23 17 3.2 4.8 0.00 0.00 0.00 89 1012.4
20260509152051 22 48 0.0 1.6 0.00 0.00 0.00 91 1012.7
20260509151547 22 105 0.0 1.6 0.00 0.00 0.00 92 1012.8
20260509151045 22 105 1.6 3.2 0.00 0.00 0.00 93 1012.9
20260509150543 21 106 3.2 3.2 0.00 0.00 0.00 93 1012.8
20260509150041 21 106 3.2 3.2 0.00 0.00 0.00 93 1013.0
20260509145536 21 106 0.0 0.0 0.00 0.00 0.00 94 1012.9
20260509145031 21 106 1.6 1.6 0.00 0.00 0.00 95 1013.0
20260509144529 20 106 4.8 4.8 0.00 0.00 0.00 95 1012.9
20260509144026 20 107 0.0 1.6 0.00 0.00 0.00 96 1012.8
20260509143523 20 106 4.8 6.4 0.00 0.00 0.00 96 1012.9
20260509143021 20 107 3.2 4.8 0.00 0.00 0.00 96 1013.0
20260509142516 20 107 3.2 3.2 0.00 0.00 0.00 96 1013.1
20260509142011 20 107 3.2 4.8 0.00 0.00 0.00 96 1012.9
20260509141508 20 107 1.6 1.6 0.00 0.00 0.00 96 1012.9
20260509141005 20 106 6.4 6.4 0.00 0.00 0.00 96 1013.0
20260509140502 20 79 6.4 6.4 0.00 0.00 0.00 96 1012.9
20260509140000 20 118 4.8 4.8 0.00 0.00 0.00 96 1013.1
20260509135457 20 95 1.6 1.6 0.00 0.00 0.00 96 1013.0
20260509134954 20 95 3.2 4.8 0.00 0.00 0.00 96 1013.0
20260509134451 20 105 3.2 3.2 0.00 0.00 0.00 95 1013.0
20260509133949 20 117 4.8 4.8 0.00 0.00 0.00 95 1013.0
20260509133445 20 107 6.4 6.4 0.00 0.00 0.00 95 1013.0
20260509132943 20 107 3.2 3.2 0.00 0.00 0.00 95 1012.8
20260509132441 19 99 6.4 6.4 0.00 0.00 0.00 95 1012.9
20260509131938 19 111 1.6 1.6 0.00 0.00 0.00 95 1012.9
20260509131435 19 142 4.8 4.8 0.00 0.00 0.00 95 1013.0
20260509130932 19 142 1.6 1.6 0.00 0.00 0.00 95 1013.1
20260509130427 19 143 3.2 4.8 0.00 0.00 0.00 95 1013.1
20260509125924 20 144 3.2 4.8 0.00 0.00 0.00 95 1013.1
20260509125421 19 144 4.8 4.8 0.00 0.00 0.00 95 1013.0
20260509124917 19 192 4.8 4.8 0.00 0.00 0.00 95 1012.9
20260509124414 19 179 4.8 6.4 0.00 0.00 0.00 95 1012.7
20260509123912 19 118 4.8 4.8 0.00 0.00 0.00 95 1013.0
20260509123409 18 155 4.8 4.8 0.00 0.00 0.00 96 1013.0
20260509122904 18 109 6.4 6.4 0.00 0.00 0.00 96 1012.9
20260509122402 18 96 3.2 4.8 0.00 0.00 0.00 96 1012.8
20260509121858 18 96 3.2 3.2 0.00 0.00 0.00 96 1012.8
20260509121355 18 96 3.2 3.2 0.00 0.00 0.00 96 1012.7
20260509120854 18 96 3.2 3.2 0.00 0.00 0.00 96 1012.6
20260509120351 18 96 4.8 4.8 0.00 0.00 0.00 97 1012.5
20260509115849 18 96 3.2 3.2 0.00 0.00 0.00 97 1012.5
20260509115346 18 96 0.0 1.6 0.00 0.00 0.00 97 1012.5
20260509114844 18 97 1.6 3.2 0.00 0.00 0.00 97 1012.6
20260509114342 18 97 1.6 3.2 0.00 0.00 0.00 96 1012.4
20260509113841 18 96 3.2 3.2 0.00 0.00 0.00 96 1012.3
20260509113338 18 96 1.6 1.6 0.00 0.00 0.00 97 1012.1
20260509112834 18 96 1.6 1.6 0.00 0.00 0.00 97 1011.8
20260509112332 18 96 1.6 1.6 0.00 0.00 0.00 96 1011.9
20260509111829 18 96 1.6 1.6 0.00 0.00 0.00 96 1011.8
20260509111325 18 96 0.0 0.0 0.00 0.00 0.00 96 1011.9
20260509110823 18 96 0.0 0.0 0.00 0.00 0.00 97 1011.8
20260509110319 18 96 1.6 3.2 0.00 0.00 0.00 97 1011.4
20260509105817 18 96 0.0 3.2 0.00 0.00 0.00 97 1011.3
20260509105315 18 96 0.0 0.0 0.00 0.00 0.00 97 1011.4
20260509104812 18 96 3.2 3.2 0.00 0.00 0.00 97 1011.6
20260509104308 18 96 3.2 3.2 0.00 0.00 0.00 96 1011.3
20260509103806 18 96 0.0 0.0 0.00 0.00 0.00 96 1011.4
20260509103303 18 96 0.0 0.0 0.00 0.00 0.00 96 1011.4
20260509102802 18 96 1.6 3.2 0.00 0.00 0.00 96 1011.4
20260509102259 18 96 1.6 1.6 0.00 0.00 0.00 96 1011.1
20260509101755 18 97 0.0 1.6 0.00 0.00 0.00 96 1011.3
20260509101251 18 97 1.6 3.2 0.00 0.00 0.00 96 1011.2
20260509100749 18 65 1.6 3.2 0.00 0.00 0.00 96 1011.2
20260509100246 18 65 1.6 1.6 0.00 0.00 0.00 96 1011.2
20260509095742 18 101 1.6 3.2 0.00 0.00 0.00 96 1011.4
20260509095240 18 101 4.8 4.8 0.00 0.00 0.00 96 1011.5
20260509094737 18 101 3.2 3.2 0.00 0.00 0.00 96 1011.4
20260509094233 18 101 1.6 1.6 0.00 0.00 0.00 96 1011.4
20260509093731 18 101 0.0 1.6 0.00 0.00 0.00 97 1011.2
20260509093228 18 101 0.0 1.6 0.00 0.00 0.00 96 1011.4
20260509092727 18 101 1.6 1.6 0.00 0.00 0.00 96 1011.5
20260509092224 18 101 1.6 3.2 0.00 0.00 0.00 97 1011.4
20260509091722 18 101 0.0 0.0 0.00 0.00 0.00 96 1011.1
20260509091218 18 101 1.6 3.2 0.00 0.00 0.00 96 1011.3
20260509090716 18 101 3.2 3.2 0.00 0.00 0.00 96 1011.2
20260509090213 18 101 0.0 0.0 0.00 0.00 0.00 95 1011.4
20260509085711 18 101 0.0 0.0 0.00 0.00 0.00 95 1011.5
20260509085207 18 101 0.0 0.0 0.00 0.00 0.00 95 1011.4
20260509084704 18 101 1.6 1.6 0.00 0.00 0.00 95 1011.7
20260509084201 18 101 1.6 1.6 0.00 0.00 0.00 94 1011.5
20260509083659 18 101 0.0 1.6 0.00 0.00 0.00 94 1011.8
20260509083155 18 101 1.6 1.6 0.00 0.00 0.00 94 1011.7
20260509082652 18 101 1.6 1.6 0.00 0.00 0.00 94 1011.6
20260509082148 18 101 0.0 0.0 0.00 0.00 0.00 94 1011.8
20260509081645 18 101 1.6 3.2 0.00 0.00 0.00 94 1011.8
20260509081143 18 101 3.2 3.2 0.00 0.00 0.00 94 1012.0
20260509080641 18 101 1.6 1.6 0.00 0.00 0.00 94 1011.8
20260509080139 18 101 1.6 3.2 0.00 0.00 0.00 95 1011.9
20260509075637 18 101 1.6 3.2 0.00 0.00 0.00 95 1012.1
20260509075134 18 101 3.2 4.8 0.00 0.00 0.00 95 1012.1
20260509074631 18 92 1.6 1.6 0.00 0.00 0.00 95 1012.1
20260509074127 18 105 3.2 3.2 0.00 0.00 0.00 95 1012.2
20260509073624 18 89 3.2 3.2 0.00 0.00 0.00 94 1012.2
20260509073120 18 88 3.2 3.2 0.00 0.00 0.00 92 1012.4
20260509072617 18 88 0.0 0.0 0.00 0.00 0.00 93 1012.1
20260509072114 18 88 0.0 1.6 0.00 0.00 0.00 94 1012.2
20260509071610 18 88 1.6 3.2 0.00 0.00 0.00 94 1012.2
20260509071108 18 88 1.6 3.2 0.00 0.00 0.00 95 1012.2
20260509070605 18 117 3.2 3.2 0.00 0.00 0.00 94 1011.9
20260509070101 18 119 3.2 4.8 0.00 0.00 0.00 95 1011.8
20260509065556 18 177 6.4 9.7 0.00 0.00 0.00 94 1011.9
20260509065053 18 191 4.8 4.8 0.00 0.00 0.00 95 1012.2
20260509064550 18 191 3.2 3.2 0.00 0.00 0.00 94 1012.5
20260509064048 18 191 1.6 1.6 0.00 0.00 0.00 94 1012.7
20260509063544 18 191 0.0 1.6 0.00 0.00 0.00 93 1012.7
20260509063041 18 191 0.0 0.0 0.00 0.00 0.00 93 1012.6
20260509062538 18 191 1.6 1.6 0.00 0.00 0.00 93 1012.7
20260509062036 18 191 1.6 1.6 0.00 0.00 0.00 94 1012.5
20260509061532 18 191 1.6 3.2 0.00 0.00 0.00 94 1012.6
20260509061030 18 191 0.0 0.0 0.00 0.00 0.00 94 1012.8
20260509060527 18 191 0.0 0.0 0.00 0.00 0.00 94 1013.0
20260509060023 18 191 0.0 0.0 0.00 0.00 0.00 94 1012.8
20260509055518 18 191 1.6 1.6 0.00 0.00 0.00 93 1012.7
20260509055015 18 191 1.6 3.2 0.00 0.00 0.00 92 1012.5
20260509054512 18 192 3.2 4.8 0.00 0.00 0.00 92 1012.4
20260509054010 18 192 1.6 3.2 0.00 0.00 0.00 92 1012.7
20260509053508 18 189 3.2 3.2 0.00 0.00 0.00 91 1012.6
20260509053005 18 139 3.2 3.2 0.00 0.00 0.00 92 1012.7
20260509052502 18 112 3.2 4.8 0.00 0.00 0.00 92 1012.6
20260509052000 19 112 6.4 6.4 0.00 0.00 0.00 90 1012.8
20260509051458 19 86 1.6 3.2 0.00 0.00 0.00 89 1012.7
20260509050954 19 86 1.6 1.6 0.00 0.00 0.00 89 1012.9
20260509050451 19 86 3.2 3.2 0.00 0.00 0.00 90 1012.9
20260509045948 20 86 3.2 3.2 0.00 0.00 0.00 90 1013.1
20260509045445 20 76 3.2 3.2 0.00 0.00 0.00 89 1013.2
20260509044942 20 76 0.0 1.6 0.00 0.00 0.00 89 1013.5
20260509044440 20 75 0.0 1.6 0.00 0.00 0.00 89 1013.6
20260509043937 20 42 4.8 6.4 0.00 0.00 0.00 90 1013.6
20260509043432 20 65 6.4 6.4 0.00 0.00 0.00 91 1013.5
20260509042928 19 37 9.7 11.3 0.00 0.00 0.00 92 1013.8
20260509042426 19 33 6.4 9.7 0.00 0.00 0.00 93 1013.3
20260509041922 19 47 6.4 9.7 0.00 0.00 0.00 94 1013.1
20260509041419 18 34 6.4 6.4 0.00 0.00 0.00 94 1012.7
20260509040917 18 50 6.4 6.4 0.00 0.00 0.00 95 1012.6
20260509040414 18 50 4.8 4.8 0.00 0.00 0.00 95 1012.4
20260509035911 18 89 3.2 4.8 0.00 0.00 0.00 96 1011.9
20260509035408 18 173 1.6 1.6 0.00 0.00 0.00 95 1011.9
20260509034904 18 174 1.6 1.6 0.00 0.00 0.00 95 1011.7
20260509034402 18 173 1.6 3.2 0.00 0.00 0.00 93 1011.7
20260509033859 19 174 1.6 3.2 0.00 0.00 0.00 92 1011.6
20260509033356 19 175 1.6 1.6 0.00 0.00 0.00 92 1011.6
20260509032852 19 175 1.6 3.2 0.00 0.00 0.00 91 1011.5
20260509032350 19 174 4.8 4.8 0.00 0.00 0.00 90 1011.5
20260509031848 20 185 1.6 1.6 0.00 0.00 0.00 89 1011.7
20260509031344 20 181 3.2 3.2 0.00 0.00 0.00 88 1011.5
20260509030842 20 181 1.6 1.6 0.00 0.00 0.00 89 1011.6
20260509030340 20 181 1.6 1.6 0.00 0.00 0.00 89 1011.6
20260509025836 20 181 3.2 3.2 0.00 0.00 0.00 89 1011.6
20260509025331 20 181 1.6 1.6 0.00 0.00 0.00 88 1011.5
20260509024827 20 181 3.2 3.2 0.00 0.00 0.00 87 1011.5
20260509024323 20 181 0.0 0.0 0.00 0.00 0.00 87 1011.5
20260509023821 20 181 0.0 1.6 0.00 0.00 0.00 87 1011.4
20260509023318 21 181 1.6 1.6 0.00 0.00 0.00 86 1011.2
20260509022814 21 165 3.2 3.2 0.00 0.00 0.00 85 1010.9
20260509022312 21 167 4.8 4.8 0.00 0.00 0.00 83 1010.7
20260509021808 21 181 4.8 4.8 0.00 0.00 0.00 87 1010.6
20260509021306 20 170 8.0 9.7 0.00 0.00 0.00 86 1011.0
20260509020803 21 170 3.2 3.2 0.00 0.00 0.00 87 1011.4
20260509020301 21 170 1.6 1.6 0.00 0.00 0.00 84 1011.4
20260509015758 21 170 1.6 1.6 0.00 0.00 0.00 80 1011.3
20260509015257 21 170 1.6 1.6 0.00 0.00 0.00 80 1011.4
20260509014753 21 170 3.2 3.2 0.00 0.00 0.00 81 1011.2
20260509014250 21 171 4.8 4.8 0.00 0.00 0.00 80 1011.3
20260509013746 21 171 3.2 4.8 0.00 0.00 0.00 80 1011.4
20260509013242 21 170 1.6 3.2 0.00 0.00 0.00 81 1011.3
20260509012739 22 170 0.0 1.6 0.00 0.00 0.00 80 1011.2
20260509012235 22 170 1.6 1.6 0.00 0.00 0.00 82 1011.2
20260509011733 22 170 0.0 0.0 0.00 0.00 0.00 79 1011.3
20260509011231 22 170 0.0 0.0 0.00 0.00 0.00 79 1011.2
20260509010728 22 170 0.0 0.0 0.00 0.00 0.00 79 1011.1
20260509010225 22 170 0.0 0.0 0.00 0.00 0.00 80 1010.8
20260509005722 22 170 0.0 1.6 0.00 0.00 0.00 80 1010.8
20260509005219 22 170 3.2 3.2 0.00 0.00 0.00 80 1010.5
20260509004713 22 170 3.2 3.2 0.00 0.00 0.00 78 1011.0
20260509004212 22 170 3.2 4.8 0.00 0.00 0.00 76 1010.8
20260509003709 22 170 6.4 6.4 0.00 0.00 0.00 76 1010.6
20260509003207 22 175 3.2 3.2 0.00 0.00 0.00 76 1010.5
20260509002704 23 177 1.6 3.2 0.00 0.00 0.00 76 1010.5
20260509002201 23 187 4.8 4.8 0.00 0.00 0.00 76 1010.3
20260509001659 23 144 6.4 6.4 0.00 0.00 0.00 75 1010.3
20260509001154 23 173 3.2 4.8 0.00 0.00 0.00 76 1010.5
20260509000653 23 167 3.2 4.8 0.00 0.00 0.00 78 1010.2
20260509000149 23 187 3.2 4.8 0.00 0.00 0.00 75 1010.4
20260508235647 23 124 4.8 4.8 0.00 0.00 0.00 75 1010.3
20260508235143 23 164 6.4 9.7 0.00 0.00 0.00 75 1010.1
20260508234641 23 120 9.7 12.9 0.00 0.00 0.00 75 1010.3
20260508234137 23 111 4.8 4.8 0.00 0.00 0.00 76 1010.4
20260508233636 23 113 4.8 9.7 0.00 0.00 0.00 75 1010.3
20260508233133 23 136 6.4 6.4 0.00 0.00 0.00 75 1010.1
20260508232630 24 110 11.3 14.5 0.00 0.00 0.00 73 1010.3
20260508232128 23 99 8.0 9.7 0.00 0.00 0.00 75 1010.4
20260508231625 24 131 8.0 11.3 0.00 0.00 0.00 75 1010.4
20260508231121 24 124 8.0 9.7 0.00 0.00 0.00 74 1010.5
20260508230618 24 132 4.8 6.4 0.00 0.00 0.00 77 1010.5
20260508230114 23 146 3.2 4.8 0.00 0.00 0.00 78 1010.7
20260508225613 23 123 4.8 6.4 0.00 0.00 0.00 79 1010.7
20260508225109 24 160 6.4 9.7 0.00 0.00 0.00 80 1010.8
20260508224607 23 144 6.4 9.7 0.00 0.00 0.00 79 1011.0
20260508224104 23 114 9.7 11.3 0.00 0.00 0.00 78 1011.1
20260508223602 23 104 6.4 9.7 0.00 0.00 0.00 79 1011.4
20260508223058 23 117 6.4 9.7 0.00 0.00 0.00 79 1011.4
20260508222556 23 173 4.8 4.8 0.00 0.00 0.00 78 1011.4
20260508222053 23 126 6.4 6.4 0.00 0.00 0.00 79 1011.4
20260508221549 23 193 6.4 6.4 0.00 0.00 0.00 78 1011.6
20260508221045 23 169 4.8 6.4 0.00 0.00 0.00 78 1011.4
20260508220542 24 114 3.2 4.8 0.00 0.00 0.00 78 1011.5
20260508220038 23 114 6.4 9.7 0.00 0.00 0.00 78 1011.6
20260508215535 24 156 6.4 9.7 0.00 0.00 0.00 78 1011.5
20260508215032 24 188 3.2 3.2 0.00 0.00 0.00 79 1011.6
20260508214529 23 162 8.0 11.3 0.00 0.00 0.00 77 1011.4
20260508214025 23 165 11.3 14.5 0.00 0.00 0.00 77 1011.2
20260508213523 25 194 8.0 9.7 0.00 0.00 0.00 74 1011.3
20260508213018 24 204 3.2 3.2 0.00 0.00 0.00 77 1011.3
20260508212515 24 183 14.5 17.7 0.00 0.00 0.00 73 1011.5
20260508212012 24 123 8.0 11.3 0.00 0.00 0.00 76 1011.4
20260508211507 23 210 6.4 9.7 0.00 0.00 0.00 74 1011.5
20260508211004 23 176 6.4 6.4 0.00 0.00 0.00 79 1011.6
20260508210500 24 162 4.8 4.8 0.00 0.00 0.00 77 1011.3
20260508205957 24 173 4.8 4.8 0.00 0.00 0.00 74 1011.5
20260508205454 23 156 8.0 11.3 0.00 0.00 0.00 75 1011.7
20260508204950 23 130 11.3 12.9 0.00 0.00 0.00 75 1011.6
20260508204448 23 124 8.0 11.3 0.00 0.00 0.00 76 1011.9
20260508203943 23 196 8.0 11.3 0.00 0.00 0.00 76 1011.8
20260508203439 23 217 8.0 11.3 0.00 0.00 0.00 74 1011.6
20260508202935 23 205 3.2 3.2 0.00 0.00 0.00 75 1011.9
20260508202433 23 130 4.8 6.4 0.00 0.00 0.00 78 1012.0
20260508201930 23 144 6.4 9.7 0.00 0.00 0.00 78 1012.1
20260508201426 23 166 4.8 6.4 0.00 0.00 0.00 74 1012.4
20260508200923 23 200 9.7 12.9 0.00 0.00 0.00 77 1012.3
20260508200420 23 112 6.4 9.7 0.00 0.00 0.00 76 1012.5
20260508195915 23 141 6.4 6.4 0.00 0.00 0.00 75 1012.5
20260508195413 23 167 9.7 12.9 0.00 0.00 0.00 75 1012.3
20260508194908 23 124 8.0 11.3 0.00 0.00 0.00 78 1012.6
20260508194406 22 145 8.0 9.7 0.00 0.00 0.00 77 1012.7
20260508193903 23 154 9.7 12.9 0.00 0.00 0.00 74 1012.7
20260508193359 23 154 11.3 12.9 0.00 0.00 0.00 73 1012.9
20260508192856 22 126 6.4 9.7 0.00 0.00 0.00 76 1012.8
20260508192353 22 154 4.8 4.8 0.00 0.00 0.00 75 1013.0
20260508191850 22 195 6.4 6.4 0.00 0.00 0.00 71 1012.9
20260508191347 22 58 3.2 3.2 0.00 0.00 0.00 74 1013.1
20260508190844 22 167 0.0 0.0 0.00 0.00 0.00 74 1013.2
20260508190341 22 132 4.8 4.8 0.00 0.00 0.00 73 1013.2
20260508185837 22 127 4.8 6.4 0.00 0.00 0.00 72 1013.3
20260508185335 22 112 6.4 6.4 0.00 0.00 0.00 74 1013.5
20260508184832 22 86 8.0 9.7 0.00 0.00 0.00 73 1013.7
20260508184329 22 109 4.8 6.4 0.00 0.00 0.00 73 1013.8
20260508183826 21 213 1.6 3.2 0.00 0.00 0.00 71 1014.2
20260508183322 21 161 8.0 9.7 0.00 0.00 0.00 74 1014.3
20260508182818 21 89 8.0 11.3 0.00 0.00 0.00 78 1014.4
20260508182315 21 107 9.7 9.7 0.00 0.00 0.00 75 1014.4
20260508181811 21 51 6.4 9.7 0.00 0.00 0.00 75 1014.4
20260508181308 21 110 9.7 11.3 0.00 0.00 0.00 77 1014.6
20260508180805 21 121 3.2 6.4 0.00 0.00 0.00 82 1014.7
20260508180302 21 179 4.8 6.4 0.00 0.00 0.00 81 1014.9
20260508175758 20 127 4.8 4.8 0.00 0.00 0.00 78 1014.9
20260508175254 21 142 3.2 4.8 0.00 0.00 0.00 78 1015.0
20260508174753 21 171 6.4 6.4 0.00 0.00 0.00 80 1015.2
20260508174250 20 134 6.4 11.3 0.00 0.00 0.00 77 1015.3